Hourly Weather Roundup
Issued by NWS

Current Version | Previous Version | Text Only | Print | Product List | Glossary On
Versions: 1 2 3 4 5 6 7 8 9 10 11 12 13 14 15 16 17 18 19 20 21 22 23 24 25 26 27 28 29 30 31 32 33 34 35 36 37 38 39 40 41 42 43 44 45 46 47 48 49 50
000
NZUS43 KILX 211010
HWRCRS

NWR Hourly Weather Roundup
National Weather Service Lincoln IL
500 AM CDT MON OCT 21 2019


CITY           SKY/WX    TMP DP  RH WIND       PRES   REMARKS
Champaign      MOCLDY    57  53  86 SE13      29.68F
Lawrenceville  FAIR      62  55  77 SE16      29.69F
Peoria         FAIR      61  51  70 SE12G25   29.58F
Springfield    FAIR      60  52  74 SE14G23   29.55F
$$


CITY           SKY/WX    TMP DP  RH WIND       PRES   REMARKS
Bloomington    MOCLDY    57  52  83 SE17      29.64F
Danville       CLOUDY    59  54  82 SE9       29.71F
Decatur        FAIR      60  52  74 SE15      29.62F
Effingham      LGT RAIN  62  49  64 E12       29.63F
Flora          NOT AVBL
Galesburg      TSTM      57  51  81 SE9       29.56F
Jacksonville   RAIN      58  53  84 E10       29.52F
Lacon          FAIR      56  51  82 SE14G20   29.61F
La Salle       FAIR      54  49  83 E13       29.63F
Lincoln        MOCLDY    60  55  84 SE8       29.58F
Litchfield     CLOUDY    59  56  89 SE12      29.54F

CITY           SKY/WX    TMP DP  RH WIND       PRES   REMARKS
Macomb         TSTM      55  54  94 S8        29.57F
Mattoon        FAIR      59  53  80 SE14G22   29.64F
Moline         TSTM      56  51  84 E14       29.55F
Olney          FAIR      62  57  84 SE13G18   29.65F
Paris          MOCLDY    61  56  83 SE9       29.72F
Pontiac        FAIR      56  52  87 SE12      29.67F
Quincy         RAIN      56  55  97 N8        29.50F FOG
Rantoul        CLOUDY    58  54  85 SE10      29.70F
Robinson       MOCLDY    60  55  86 SE9       29.71F
Taylorville    LGT RAIN  61  55  82 SE13      29.56F
Terre Haute    MOCLDY    60  54  80 SE9       29.73F
$$


CITY           SKY/WX    TMP DP  RH WIND       PRES   REMARKS
Burlington     HVY RAIN  57  54  89 S6        29.54F FOG
Chicago        CLOUDY    52  51  97 E7        29.72F
Des Moines     CLOUDY    54  52  93 SE14G26   29.35F
Evansville     FAIR      63  55  75 SE7G18    29.70F
Indianapolis   CLOUDY    57  54  89 SE14      29.80F
Kansas City    CLEAR     49  49 100 W9        29.50R
Milwaukee      FOG       49  47  93 NE8       29.76F VSB 1/2
St Louis       CLOUDY    63  60  90 SE18G30   29.49F
$$




USA.gov is the U.S. government's official web portal to all federal, state and local government web resources and services.